Regional Weather Roundup
Issued by NWS

Home | Current Version | Previous Version | Graphics & Text | Print | Product List | Glossary On
Versions: 1 2 3 4 5 6 7 8 9 10 11 12 13 14 15 16 17 18 19 20 21 22 23 24 25 26 27 28 29 30 31 32 33 34 35 36 37 38 39 40 41 42 43 44 45 46 47 48 49 50
000
ASUS43 KLSX 250310
RWRMO

WEATHER SUMMARY FOR MISSOURI
NATIONAL WEATHER SERVICE SPRINGFIELD MO
900 PM CST FRI FEB 24 2017

NOTE: "FAIR" INDICATES FEW OR NO CLOUDS BELOW 12,000 FEET WITH NO
       SIGNIFICANT WEATHER AND/OR OBSTRUCTIONS TO VISIBILITY.
       CURRENT SKY AND/OR WEATHER CONDITIONS ARE NOT AVAILABLE FOR
       CHILLICOTHE AND FARMINGTON.

MOZ001>031-035>038-043-044-053-054-250400-
...NORTHERN AND WESTERN MISSOURI...

CITY           SKY/WX    TMP DP  RH WIND       PRES   REMARKS
KANSAS CTY INT FLURRIES  26  21  81 NW15G25   30.01R WCI  14
KANSAS C DTWN  CLOUDY    28  19  69 NW13G25   30.01R WCI  17
LEE`S SUMMIT   CLOUDY    28  20  71 NW20G30   30.00R WCI  15
ST JOSEPH      MOCLDY    24  21  88 NW13      30.03R WCI  12
CHILLICOTHE      N/A     27  20  75 NW13G26   29.95R WCI  16
KIRKSVILLE     CLOUDY    27  23  85 NW20      29.84R WCI  13

$$
MOZ066>068-077>081-088>096-101>105-250400-
...SOUTHWEST MISSOURI...

CITY           SKY/WX    TMP DP  RH WIND       PRES   REMARKS
SPRINGFIELD    CLOUDY    34  21  59 NW17G24   29.96R WCI  23
JOPLIN         CLOUDY    32  20  61 NW20G25   30.05R WCI  20
BRANSON        PTCLDY    36  23  60 W20G32    29.95R WCI  25

$$
MOZ032>034-039>042-045>050-055>058-069>072-250400-
...CENTRAL MISSOURI...

CITY           SKY/WX    TMP DP  RH WIND       PRES   REMARKS
COLUMBIA       CLOUDY    32  21  64 W20G29    29.88R WCI  20
JEFFERSON CITY CLOUDY    34  20  56 W18G30    29.91R WCI  23
ROLLA          FLURRIES  34  28  79 W23G32    29.85R WCI  22
SEDALIA        CLOUDY    30  20  66 NW16G30   29.96R WCI  19
WHITEMAN AFB   CLOUDY    30  20  68 NW20G26   29.96R WCI  17
WARRENSBURG    CLOUDY    30  19  64 NW12G24   29.99R WCI  21
OSAGE BEACH    CLOUDY    34  20  56 W12G21    29.93R WCI  25

$$
MOZ051-052-059>065-250400-
...EAST CENTRAL MISSOURI...

CITY           SKY/WX    TMP DP  RH WIND       PRES   REMARKS
ST LOUIS INTL  CLOUDY    43  29  57 NW18G32   29.77R
SPIRIT OF STL  CLOUDY    42  27  55 W21G33    29.78R
ST CHARLES     CLOUDY    41  30  65 W24G32    29.78R

$$
MOZ072>076-082>087-097>100-106>115-250400-
...SOUTH CENTRAL AND SOUTHEAST MISSOURI...

CITY           SKY/WX    TMP DP  RH WIND       PRES   REMARKS
CAPE GIRARDEAU CLEAR     48  32  53 W13       29.77R
FARMINGTON     PTCLDY    43  26  51 W9G24     29.80R
POPLAR BLUFF   CLEAR     50  33  52 W7        29.80R
WEST PLAINS    CLEAR     41  26  55 W18G28    29.87R

$$



USA.gov is the U.S. government's official web portal to all federal, state and local government web resources and services.